Wind_Speed
35 36 35 35 35 35 37 39 39 37 37 35 34 33 31 30 30 28 28 27 27 27 26 25 24 23 23 23 22 23 23 23 23 23 22 21 20 18 17 15 14 12 11
36 36 36 37 36 36 38 39 39 38 37 36 35 34 33 32 30 29 28 27 27 27 26 26 24 24 24 23 23 23 22 23 24 24 25 24 22 21 20 18 17 15 13
37 36 36 36 37 37 37 38 38 39 38 37 36 35 34 32 31 30 29 28 27 27 27 26 25 24 23 23 23 23 22 22 23 25 26 26 25 24 23 21 20 18 16
37 36 36 37 37 36 37 37 38 37 37 37 36 35 34 33 32 32 30 29 28 28 26 26 25 24 23 22 22 22 22 22 22 24 26 27 27 27 26 25 23 21 20
38 38 37 37 37 36 36 37 36 35 36 36 35 35 35 35 33 32 31 30 29 28 26 26 25 24 23 23 22 22 22 21 20 21 23 26 27 27 28 28 27 25 23
39 39 39 38 38 36 36 35 32 32 34 35 35 34 34 36 35 33 32 31 30 28 26 25 24 23 22 22 22 21 20 20 20 19 20 22 24 26 28 30 30 29 27
40 40 40 39 38 37 36 33 31 31 33 34 34 35 35 35 34 33 31 30 29 28 26 25 24 23 22 21 21 20 20 19 20 19 18 18 20 22 23 26 30 30 29
42 42 41 40 39 38 37 34 33 31 32 34 34 34 34 34 33 32 31 30 29 28 27 26 25 24 22 20 20 19 18 18 18 18 17 16 17 18 19 21 25 28 30
42 43 42 41 40 39 37 36 35 33 32 32 32 33 34 33 33 32 32 31 30 30 29 27 26 24 23 21 19 17 16 16 15 15 15 15 15 16 17 18 21 24 27
42 41 41 40 40 39 38 37 36 35 34 32 32 34 35 34 33 32 32 32 32 31 29 28 26 25 24 21 19 18 17 15 14 13 13 13 12 13 14 16 17 20 22
40 39 39 38 38 37 37 38 38 37 36 35 34 33 34 35 36 34 32 31 32 32 31 30 28 26 25 23 21 19 18 16 14 13 12 11 11 11 12 13 15 17 19
38 38 37 36 36 36 36 36 37 38 38 39 38 35 35 35 36 36 35 33 33 33 33 32 30 28 27 24 22 21 19 17 15 13 12 11 10 10 11 12 13 15 17
38 38 37 35 35 35 36 35 36 37 38 39 41 39 38 37 36 36 35 35 35 34 33 33 32 30 29 27 25 23 20 18 16 14 13 12 10 10 10 11 12 14 16
39 40 41 40 38 38 38 38 37 37 38 39 41 42 41 40 38 37 36 36 36 36 35 35 35 33 31 30 28 26 23 21 18 16 14 12 11 10 10 10 12 13 15
41 42 43 44 44 43 43 42 42 41 41 40 41 43 44 44 41 39 38 38 37 37 37 38 38 36 34 32 31 28 26 23 20 17 15 13 11 10 10 10 11 12 14
42 43 45 46 47 48 48 47 47 46 45 45 45 44 45 46 46 44 41 39 40 40 40 40 39 38 37 36 34 31 28 25 22 19 17 14 12 11 10 10 10 11 13
44 45 47 48 50 51 52 52 52 51 50 49 49 49 49 49 50 48 45 43 42 42 42 42 41 40 40 38 36 34 31 28 25 22 19 16 13 11 10 10 10 11 12
45 48 50 51 53 54 55 56 56 55 54 54 53 53 52 52 52 52 51 48 45 44 45 44 42 42 42 41 40 38 34 32 28 25 21 17 15 12 11 10 11 12 13
48 50 52 53 55 56 58 60 61 60 59 58 57 56 56 55 55 55 54 53 51 48 46 46 44 44 44 43 42 41 38 35 31 28 24 20 17 14 13 12 12 13 14
50 51 52 53 55 57 58 60 61 61 61 60 60 59 59 58 58 57 57 56 55 53 50 47 46 47 45 45 44 43 41 38 35 31 28 24 20 17 15 14 14 14 15
50 51 52 53 54 54 55 56 57 59 59 59 59 59 59 60 61 60 59 59 58 56 54 50 46 47 48 46 45 45 43 41 38 35 31 27 23 20 17 15 15 15 15
49 50 51 51 50 50 51 52 52 53 54 55 55 57 58 60 62 62 61 61 60 59 56 55 51 49 48 47 47 47 45 44 41 38 34 30 26 23 20 17 16 16 15
49 49 48 47 46 45 45 45 46 46 47 49 50 52 55 57 60 62 63 62 61 60 59 57 55 51 49 50 48 48 47 45 44 41 38 33 29 25 22 19 18 17 17
47 46 44 42 41 39 39 38 39 40 41 43 46 48 50 53 56 59 61 62 62 61 60 58 55 53 51 50 49 49 49 48 46 43 40 35 31 27 25 22 19 18 18
44 42 40 39 37 35 33 32 32 33 34 37 41 44 45 47 50 53 57 60 61 62 60 59 58 56 53 50 50 49 49 48 46 43 40 37 33 30 27 24 21 20 19
41 39 38 36 33 30 27 26 26 26 28 31 35 39 40 42 45 48 51 55 58 60 60 60 59 58 56 52 50 50 48 48 47 44 41 38 36 32 29 26 23 22 20
Wind_Direction
297 296 294 292 289 286 286 283 280 276 269 264 257 252 251 254 254 258 257 251 248 248 247 245 246 247 248 248 247 246 245 243 240 237 234 233 232 231 231 229 225 223 222
295 293 292 291 291 289 288 283 278 274 270 264 257 252 250 250 251 254 253 248 245 243 244 242 244 247 247 247 246 246 247 246 242 240 237 233 231 231 231 230 229 227 225
292 291 290 292 291 289 289 284 278 273 268 263 256 253 250 249 250 251 252 247 242 242 242 241 242 244 246 246 245 245 247 248 244 241 239 235 233 232 233 232 230 229 228
290 289 289 292 292 289 286 282 276 272 265 261 256 252 250 249 250 250 250 246 243 242 242 241 240 243 246 245 245 246 247 248 247 241 239 236 236 237 235 233 231 230 230
287 287 287 289 290 288 284 283 276 271 262 257 253 252 251 250 251 250 249 247 244 241 241 241 241 242 244 244 245 245 245 246 246 242 239 238 238 238 236 234 233 232 231
286 285 285 286 288 288 285 281 272 267 261 255 251 252 251 250 250 251 249 247 246 241 239 239 241 240 240 242 243 244 243 243 243 241 240 241 240 239 239 238 235 233 232
285 284 284 285 285 284 285 280 270 265 259 253 251 251 251 250 249 249 249 247 246 242 239 236 237 239 239 240 241 242 241 240 239 239 239 242 241 240 241 239 236 233 232
284 283 283 282 282 282 281 276 272 268 262 257 251 249 249 249 247 247 245 245 244 242 239 235 233 235 235 236 237 237 236 235 233 234 235 236 238 240 241 239 237 235 234
284 283 283 282 281 279 277 274 271 271 266 259 253 251 248 248 247 245 243 243 243 241 238 235 231 229 229 229 229 228 227 227 226 226 229 229 233 238 240 240 239 238 238
286 285 283 282 280 278 275 272 270 268 264 258 255 253 250 247 245 244 243 241 239 237 235 231 227 225 224 222 220 219 220 220 220 221 223 226 232 238 241 242 242 241 241
289 287 285 283 281 279 275 272 270 267 263 259 257 255 249 244 244 243 240 238 235 233 231 227 224 221 220 218 215 214 216 218 220 221 222 225 229 235 243 244 244 246 246
291 290 287 285 282 280 277 273 270 266 262 259 256 254 251 246 243 242 238 235 232 231 228 224 221 218 216 214 212 211 212 216 217 220 223 227 231 236 242 246 247 248 249
291 289 288 286 283 281 279 276 271 267 263 259 255 253 252 248 242 239 237 234 230 228 226 223 220 216 214 211 209 209 209 212 214 217 223 230 235 242 247 250 251 250 251
287 287 286 284 282 280 279 277 273 269 264 261 256 252 249 247 243 240 235 232 229 226 224 221 218 215 213 210 209 208 209 212 215 219 225 232 237 243 250 255 255 254 253
286 284 283 282 280 279 278 276 273 269 265 261 257 253 249 246 245 240 236 231 229 226 222 221 218 215 212 210 209 209 209 212 216 219 223 229 235 243 253 260 261 258 257
285 284 282 281 279 278 276 274 271 268 265 261 257 254 251 245 243 240 237 233 229 226 222 220 218 215 213 211 210 210 210 212 214 218 222 227 233 243 254 262 266 264 262
286 285 283 280 278 276 274 273 270 267 263 260 257 253 250 248 244 241 238 234 231 226 224 221 220 218 215 212 211 211 211 212 215 218 222 228 234 243 254 264 270 270 268
289 287 285 282 279 276 274 271 268 266 262 259 255 252 248 246 244 241 239 236 231 227 225 222 220 219 217 215 213 213 212 214 216 218 222 228 235 244 254 265 273 274 273
293 290 288 284 281 278 275 271 267 264 261 258 254 250 246 244 242 240 237 236 233 229 226 225 221 219 218 216 216 215 214 215 217 219 222 228 235 243 254 265 273 276 275
297 295 291 287 283 279 276 272 268 264 260 256 253 249 245 241 239 237 235 234 233 230 227 226 223 221 219 218 218 217 216 217 218 219 223 228 234 241 252 263 272 275 277
301 299 295 291 286 281 277 272 267 263 259 254 250 246 242 239 237 235 233 232 231 231 229 226 224 221 220 219 219 218 218 218 219 220 224 227 232 239 249 260 270 273 275
306 303 300 295 289 284 278 273 267 262 257 252 247 243 240 237 234 233 231 230 229 230 229 227 225 223 222 220 220 220 219 219 220 221 224 226 231 237 244 255 265 270 272
310 308 303 298 294 288 282 274 268 261 256 250 245 240 238 235 232 231 230 229 228 227 228 227 226 224 223 221 220 220 220 219 220 221 223 226 229 234 241 250 259 266 268
315 312 308 303 299 293 286 278 269 261 255 247 241 237 235 232 230 229 228 227 227 225 225 225 223 223 222 221 218 219 220 220 220 221 222 225 228 232 238 246 255 262 266
319 316 312 308 304 297 289 280 270 260 251 243 237 233 231 229 227 226 226 226 225 224 224 223 223 222 221 222 221 219 219 219 220 220 221 224 226 231 236 242 249 257 262
324 322 317 313 309 302 293 283 271 259 248 238 230 226 225 223 221 221 222 223 224 223 223 222 223 222 223 224 223 220 219 220 220 221 221 223 226 230 234 239 246 253 258
Height
5854 5852 5850 5848 5846 5844 5844 5842 5842 5843 5844 5846 5848 5851 5854 5856 5857 5858 5860 5862 5863 5866 5868 5869 5871 5873 5875 5877 5879 5881 5884 5887 5889 5891 5894 5896 5898 5901 5903 5905 5906 5908 5909
5846 5845 5843 5841 5838 5836 5834 5833 5833 5834 5835 5838 5840 5843 5846 5848 5850 5852 5854 5855 5857 5859 5862 5864 5866 5868 5870 5872 5874 5877 5879 5881 5884 5887 5889 5892 5895 5897 5900 5902 5904 5906 5908
5838 5837 5835 5833 5831 5829 5826 5825 5824 5825 5826 5829 5832 5835 5837 5840 5843 5845 5847 5849 5851 5853 5855 5858 5860 5862 5865 5867 5869 5872 5874 5876 5879 5882 5885 5888 5891 5893 5896 5899 5901 5903 5905
5830 5828 5827 5825 5823 5820 5818 5817 5816 5817 5818 5820 5823 5826 5829 5832 5835 5838 5840 5842 5845 5847 5849 5851 5854 5857 5859 5862 5864 5867 5869 5872 5874 5876 5880 5883 5886 5889 5892 5895 5897 5900 5902
5822 5820 5819 5817 5815 5812 5810 5808 5807 5808 5809 5812 5815 5818 5821 5825 5828 5831 5834 5836 5838 5840 5842 5845 5848 5851 5854 5856 5859 5862 5864 5867 5869 5871 5874 5877 5880 5883 5886 5890 5893 5896 5898
5813 5811 5810 5808 5806 5804 5802 5799 5798 5800 5802 5804 5807 5810 5813 5817 5820 5823 5826 5829 5831 5834 5836 5839 5842 5845 5848 5851 5854 5856 5859 5861 5864 5866 5869 5872 5875 5878 5881 5884 5887 5891 5894
5803 5802 5800 5799 5797 5795 5794 5791 5791 5791 5793 5796 5799 5802 5806 5808 5812 5815 5819 5822 5825 5828 5831 5834 5837 5840 5843 5846 5849 5852 5854 5857 5859 5862 5864 5866 5869 5872 5875 5878 5881 5885 5889
5793 5791 5790 5789 5788 5787 5786 5785 5784 5785 5786 5788 5791 5793 5797 5801 5804 5807 5811 5815 5818 5822 5825 5827 5831 5835 5838 5841 5844 5847 5849 5852 5854 5857 5859 5862 5864 5867 5870 5872 5876 5879 5883
5783 5781 5780 5779 5779 5778 5778 5777 5777 5777 5779 5781 5783 5786 5789 5792 5796 5800 5804 5807 5811 5814 5818 5821 5826 5829 5833 5837 5840 5842 5845 5848 5850 5853 5855 5857 5860 5863 5865 5867 5870 5873 5876
5772 5770 5769 5769 5768 5768 5769 5769 5769 5770 5771 5773 5775 5777 5780 5783 5788 5792 5795 5799 5802 5807 5811 5815 5820 5824 5828 5832 5835 5838 5841 5844 5846 5849 5851 5854 5856 5858 5860 5863 5865 5868 5871
5760 5759 5758 5757 5757 5757 5758 5759 5760 5761 5763 5764 5767 5769 5771 5774 5778 5783 5787 5791 5795 5799 5804 5808 5813 5818 5822 5826 5830 5834 5837 5840 5842 5845 5847 5850 5852 5854 5856 5858 5860 5863 5865
5750 5748 5747 5747 5747 5747 5747 5748 5750 5751 5753 5755 5758 5761 5763 5766 5769 5773 5778 5782 5787 5791 5796 5801 5806 5812 5816 5821 5825 5829 5832 5835 5838 5841 5844 5846 5848 5850 5852 5853 5855 5857 5860
5741 5738 5737 5737 5737 5737 5737 5738 5739 5741 5743 5745 5748 5751 5754 5757 5760 5764 5769 5774 5779 5784 5789 5794 5799 5805 5810 5815 5819 5823 5827 5831 5834 5837 5840 5842 5844 5846 5847 5849 5850 5852 5854
5731 5729 5727 5727 5726 5726 5726 5727 5728 5730 5732 5735 5737 5740 5744 5748 5751 5755 5760 5765 5771 5777 5782 5787 5792 5798 5803 5809 5814 5818 5822 5826 5829 5832 5835 5838 5839 5841 5843 5844 5845 5847 5849
5721 5719 5717 5715 5715 5714 5714 5715 5716 5718 5720 5723 5725 5729 5733 5737 5741 5746 5750 5755 5762 5768 5774 5779 5784 5790 5796 5801 5807 5812 5816 5820 5824 5828 5831 5833 5835 5837 5838 5840 5841 5842 5844
5710 5708 5706 5704 5702 5701 5701 5701 5702 5704 5707 5710 5712 5716 5720 5725 5730 5735 5740 5745 5752 5758 5764 5770 5776 5782 5788 5794 5800 5805 5809 5815 5819 5822 5826 5828 5830 5832 5834 5835 5836 5837 5838
5698 5695 5693 5690 5688 5686 5685 5685 5686 5688 5691 5694 5698 5702 5707 5711 5717 5723 5729 5735 5742 5748 5755 5761 5768 5774 5779 5786 5792 5798 5803 5808 5813 5817 5820 5823 5825 5827 5829 5830 5831 5832 5833
5685 5681 5678 5675 5672 5670 5668 5667 5668 5669 5672 5676 5681 5686 5691 5697 5703 5709 5716 5723 5730 5737 5744 5751 5759 5765 5770 5777 5783 5790 5796 5801 5806 5811 5815 5818 5820 5822 5824 5825 5826 5827 5828
5670 5665 5661 5657 5653 5650 5648 5647 5647 5649 5652 5656 5661 5667 5674 5680 5688 5695 5702 5710 5717 5725 5733 5741 5749 5755 5760 5767 5774 5781 5788 5794 5799 5804 5808 5812 5815 5817 5819 5820 5821 5822 5823
5653 5648 5642 5637 5633 5629 5626 5624 5624 5626 5629 5634 5640 5646 5654 5662 5670 5678 5687 5695 5703 5712 5721 5729 5737 5744 5751 5758 5765 5772 5780 5786 5792 5797 5802 5806 5809 5811 5814 5815 5816 5817 5818
5636 5630 5623 5617 5611 5607 5604 5602 5601 5603 5607 5612 5619 5625 5633 5642 5651 5661 5670 5680 5688 5698 5707 5716 5725 5732 5740 5748 5756 5763 5771 5777 5783 5789 5794 5799 5803 5806 5808 5810 5811 5812 5813
5620 5612 5604 5597 5591 5586 5582 5580 5580 5582 5586 5591 5598 5605 5613 5622 5631 5642 5653 5664 5674 5684 5694 5704 5712 5721 5730 5739 5746 5754 5761 5769 5775 5781 5787 5792 5797 5800 5802 5804 5805 5807 5808
5604 5595 5586 5578 5572 5567 5563 5560 5560 5562 5567 5572 5579 5586 5593 5603 5613 5625 5636 5647 5658 5669 5680 5691 5700 5710 5718 5728 5736 5744 5751 5758 5766 5772 5779 5785 5789 5793 5796 5798 5800 5801 5802
5589 5580 5571 5563 5556 5551 5546 5543 5543 5545 5549 5555 5561 5569 5577 5586 5597 5608 5619 5631 5642 5654 5667 5678 5688 5698 5707 5715 5723 5732 5739 5747 5756 5764 5771 5777 5782 5786 5789 5792 5794 5796 5797
5577 5567 5558 5550 5543 5538 5533 5530 5529 5531 5535 5540 5546 5554 5563 5572 5582 5593 5604 5617 5628 5639 5650 5663 5674 5683 5694 5703 5711 5720 5729 5738 5746 5755 5763 5769 5774 5778 5782 5785 5788 5790 5791
5566 5557 5548 5540 5533 5527 5523 5520 5518 5519 5523 5528 5534 5542 5551 5560 5568 5578 5590 5601 5613 5625 5637 5649 5661 5671 5682 5692 5701 5710 5719 5728 5737 5745 5753 5760 5766 5771 5775 5778 5781 5784 5786